This is the latest recevied weather packets stored in our database for station/object KJ5BMY-13. If no packets are shown the sender has not sent any weather packets the latest 1 day(s).
| Time | Temp. | Humidity | Pressure | Rain* | Wind** | Luminosity | Snow |
|---|---|---|---|---|---|---|---|
| 1778036112 | 21.67° C | 73% | 1009.9 hPa | 0 mm | 0.45 m/s, 296° | - | - |
| 1778035809 | 21.67° C | 73% | 1009.8 hPa | 0 mm | 0 m/s | - | - |
| 1778035506 | 22.22° C | 73% | 1009.7 hPa | 0 mm | 1.34 m/s, 25° | - | - |
| 1778035201 | 22.22° C | 72% | 1009.3 hPa | 0 mm | 0.45 m/s, 230° | - | - |
| 1778034898 | 22.78° C | 72% | 1009.3 hPa | 0 mm | 0 m/s | - | - |
| 1778034595 | 23.33° C | 71% | 1009.1 hPa | 0 mm | 0 m/s | - | - |
| 1778034293 | 23.33° C | 70% | 1008.9 hPa | 0 mm | 0 m/s | - | - |
| 1778033991 | 23.33° C | 70% | 1008.6 hPa | 0 mm | 0.45 m/s, 229° | - | - |
| 1778033688 | 23.33° C | 70% | 1008.7 hPa | 0 mm | 0 m/s | - | - |
| 1778033385 | 23.33° C | 70% | 1008.4 hPa | 0 mm | 0 m/s | - | - |
| 1778033082 | 23.33° C | 69% | 1008.3 hPa | 0 mm | 0 m/s | - | - |
| 1778032779 | 23.33° C | 69% | 1008.5 hPa | 0 mm | 0 m/s | - | - |
| 1778032477 | 23.33° C | 69% | 1008.4 hPa | 0 mm | 0 m/s | - | - |
| 1778032174 | 23.33° C | 68% | 1008.5 hPa | 0 mm | 0 m/s | - | - |
| 1778031871 | 23.89° C | 68% | 1008.5 hPa | 0 mm | 0 m/s | - | - |
| 1778031567 | 23.89° C | 67% | 1007.9 hPa | 0 mm | 0.89 m/s, 9° | - | - |
| 1778031265 | 23.89° C | 67% | 1007.7 hPa | 0 mm | 0 m/s | - | - |
| 1778030961 | 23.89° C | 66% | 1008 hPa | 0 mm | 0 m/s | - | - |
| 1778030658 | 23.89° C | 65% | 1007.9 hPa | 0 mm | 0 m/s | - | - |
| 1778030355 | 23.89° C | 66% | 1008.2 hPa | 0 mm | 0.45 m/s, 244° | - | - |
| 1778030052 | 24.44° C | 67% | 1007.9 hPa | 0 mm | 0.45 m/s, 326° | - | - |
| 1778029749 | 24.44° C | 68% | 1007.6 hPa | 0 mm | 0 m/s | - | - |
| 1778029447 | 24.44° C | 68% | 1007.7 hPa | 0 mm | 0 m/s | - | - |
| 1778029144 | 25.56° C | 67% | 1007.7 hPa | 0 mm | 0 m/s | - | - |
| 1778028841 | 25.56° C | 66% | 1007.5 hPa | 0 mm | 0 m/s | - | - |
* Rain latest hour (hover to see other rain measurements)
** Current wind speed in m/s (hover to see current wind gust speed)